軌道要素
Epoch 2019 Nov. 13.0 TT = JDT 2458800.5
T 2019 Nov. 7.76191 TT Rudenko
q 2.0519341 (2000.0) P Q
n 0.07785687 Peri. 328.91087 +0.73773797 -0.60293584
a 5.4317290 Node 71.31080 +0.66631677 +0.57806020
e 0.6222319 Incl. 18.69716 +0.10846495 +0.54983160
P 12.7
From 174 observations 2019 Oct. 8-2020 Feb. 14, mean residual 0".5.
|